Regional Weather Roundup
Issued by NWS

Home | Current Version | Previous Version | Graphics & Text | Print | Product List | Glossary On
Versions: 1 2 3 4 5 6 7 8 9 10 11 12 13 14 15 16 17 18 19 20 21 22 23 24 25 26 27 28 29 30 31 32 33 34 35 36 37 38 39 40 41 42 43 44 45 46 47 48 49 50
000
ASUS43 KOAX 161410
RWRNE

WEATHER ROUNDUP FOR NEBRASKA
NATIONAL WEATHER SERVICE OMAHA NE
900 AM CDT TUE SEP 16 2014

NOTES: SATELLITE DATA IS BEING USED TO AUGMENT CLOUD COVER ABOVE
       12000 FEET.
       "FAIR" INDICATES FEW OR NO CLOUDS BELOW 12,000 FEET WITH NO
       SIGNIFICANT WEATHER AND/OR OBSTRUCTIONS TO VISIBILITY.

  * THESE STATIONS DO NOT REPORT WEATHER SUCH AS RAIN...SNOW OR FOG.

NEZ001>004-019>022-054>056-161500-
NEBRASKA PANHANDLE

CITY           SKY/WX    TMP DP  RH WIND       PRES   REMARKS
SCOTTSBLUFF    SUNNY     52  50  93 NW6       30.10S FOG
ALLIANCE       SUNNY     52  50  93 W3        30.08S
CHADRON        SUNNY     51  49  92 SW7       30.06S
KIMBALL        SUNNY     55  50  84 W6        30.12R
SIDNEY         SUNNY     55  52  89 S12       30.11S
$$

NEZ057>060-069>072-079>082-161500-
SOUTHWEST NEBRASKA

CITY           SKY/WX    TMP DP  RH WIND       PRES   REMARKS
NORTH PLATTE   SUNNY     53  47  79 S7        30.14F
IMPERIAL       CLOUDY    56  52  86 S10       30.14F
LEXINGTON      MOSUNNY   52  49  90 S12       30.17S
MCCOOK         CLOUDY    55  49  80 S15G22    30.16F
OGALLALA       PTSUNNY   54  52  90 S15G22    30.08F
$$

NEZ005>010-023>029-035>040-094-161500-
NORTH CENTRAL NEBRASKA

CITY           SKY/WX    TMP DP  RH WIND       PRES   REMARKS
VALENTINE      SUNNY     54  45  71 SW8       30.07F
AINSWORTH      SUNNY     51  44  77 S14G20    30.08F
BROKEN BOW     SUNNY     51  47  86 S10       30.16S
O`NEILL        SUNNY     51  47  86 S13       30.15F
ORD            SUNNY     50  45  83 S9        30.16F
THEDFORD       MOSUNNY   52  45  76 S14       30.09F
$$

NEZ041-046>049-061>064-073>077-083>087-161500-
SOUTH CENTRAL NEBRASKA

CITY           SKY/WX    TMP DP  RH WIND       PRES   REMARKS
GRAND ISLAND   SUNNY     50  45  83 S14       30.20F
AURORA         SUNNY     49  45  84 S8        30.21F
HASTINGS       SUNNY     50  44  80 S10       30.21F
HEBRON         SUNNY     50  46  86 S6        30.24F
HOLDREGE       PTSUNNY   49  47  92 S15G21    30.17F
KEARNEY *      MOSUNNY   50  46  87 SE14      30.18F
YORK           SUNNY     50  46  87 S7        30.22F
$$

NEZ011>018-030>034-042>045-161500-
NORTHEAST NEBRASKA

CITY           SKY/WX    TMP DP  RH WIND       PRES   REMARKS
NORFOLK        SUNNY     50  44  80 S12G20    30.19F
ALBION         SUNNY     48  44  84 S10       30.20S
BLAIR          SUNNY     50  48  93 CALM      30.23S
COLUMBUS *     SUNNY     50  45  81 S7        30.22F
FREMONT        SUNNY     52  47  83 S5        30.23S
TEKAMAH        MOSUNNY   46  45  96 SE3       30.23S
WAYNE          SUNNY     49  46  89 SW9       30.21F
$$

NEZ050>053-065>068-078-088>093-161500-
SOUTHEAST NEBRASKA

CITY           SKY/WX    TMP DP  RH WIND       PRES   REMARKS
LINCOLN        SUNNY     49  44  83 CALM      30.24S
OMAHA EPPLEY   MOSUNNY   49  46  90 SE3       30.25S FOG
BEATRICE       SUNNY     50  46  86 S5        30.24S
FALLS CITY       N/A     50  48  93 CALM      30.24F
NEBRASKA CITY  SUNNY     50  47  92 S3        30.24S
PLATTSMOUTH    SUNNY     50  47  88 SE3       30.24S
$$

NEZ044-045-051>053-067-161500-
OMAHA AREA

CITY           SKY/WX    TMP DP  RH WIND       PRES   REMARKS
OMAHA EPPLEY   MOSUNNY   49  46  90 SE3       30.25S FOG
BLAIR          SUNNY     50  48  93 CALM      30.23S
FREMONT        SUNNY     52  47  83 S5        30.23S
MILLARD        SUNNY     49  46  89 CALM      30.23F
OFFUTT AFB     PTSUNNY   48  48 100 SE3       30.24S FOG
PLATTSMOUTH    SUNNY     50  47  88 SE3       30.24S
WAHOO          FAIR      48  45  88 CALM      30.23S
$$


USA.gov is the U.S. government's official web portal to all federal, state and local government web resources and services.